Time,TemperatureF,DewpointF,PressureIn,WindDirection,WindDirectionDegrees,WindSpeedMPH,WindSpeedGustMPH,Humidity,HourlyPrecipIn,Conditions,Clouds,dailyrainin,SoftwareType,DateUTC
2014-07-24 00:00:00,68.4,66.6,30.00,NNE,17,1.0,8.0,94,0.41,,,0.59,Wunderground v.1.15,2014-07-24 04:00:00,
2014-07-24 00:01:00,68.4,66.6,30.00,NNE,19,1.0,8.0,94,0.30,,,0.01,Wunderground v.1.15,2014-07-24 04:01:00,
2014-07-24 00:02:00,68.4,66.6,30.00,NNE,30,3.0,8.0,94,0.30,,,0.01,Wunderground v.1.15,2014-07-24 04:02:00,
2014-07-24 00:06:00,68.2,66.7,30.00,NNE,30,0.0,2.0,95,0.11,,,0.01,Wunderground v.1.15,2014-07-24 04:06:00,
2014-07-24 00:07:00,68.2,66.7,30.00,NNE,30,2.0,2.0,95,0.10,,,0.01,Wunderground v.1.15,2014-07-24 04:07:00,
2014-07-24 00:09:00,68.2,66.7,30.00,NNE,30,0.0,2.0,95,0.07,,,0.01,Wunderground v.1.15,2014-07-24 04:09:00,
2014-07-24 00:12:00,68.1,66.6,30.00,NNE,31,2.0,2.0,95,0.05,,,0.01,Wunderground v.1.15,2014-07-24 04:12:00,
2014-07-24 00:13:00,68.1,66.6,30.00,NNE,31,1.0,1.0,95,0.05,,,0.01,Wunderground v.1.15,2014-07-24 04:13:00,
2014-07-24 00:15:00,68.1,66.6,30.00,NNE,31,0.0,1.0,95,0.04,,,0.01,Wunderground v.1.15,2014-07-24 04:15:00,
2014-07-24 00:16:00,68.1,66.6,30.00,NNE,31,1.0,1.0,95,0.04,,,0.01,Wunderground v.1.15,2014-07-24 04:16:00,
2014-07-24 00:19:00,68.1,66.6,30.00,NNE,31,2.0,2.0,95,0.00,,,0.01,Wunderground v.1.15,2014-07-24 04:19:00,
2014-07-24 00:21:00,68.1,66.6,30.00,ENE,69,1.0,2.0,95,0.00,,,0.01,Wunderground v.1.15,2014-07-24 04:21:00,
2014-07-24 00:22:00,68.1,66.6,30.00,ENE,73,3.0,3.0,95,0.00,,,0.01,Wunderground v.1.15,2014-07-24 04:22:00,
2014-07-24 00:23:00,68.1,66.6,30.00,ENE,72,0.0,1.0,95,0.00,,,0.01,Wunderground v.1.15,2014-07-24 04:23:00,
2014-07-24 00:24:00,68.1,66.6,30.00,ENE,72,1.0,1.0,95,0.00,,,0.01,Wunderground v.1.15,2014-07-24 04:24:00,
2014-07-24 00:27:00,68.1,66.6,30.00,ENE,75,2.0,2.0,95,0.00,,,0.01,Wunderground v.1.15,2014-07-24 04:27:00,
2014-07-24 00:29:00,68.1,66.6,30.00,NNE,32,3.0,3.0,95,0.00,,,0.01,Wunderground v.1.15,2014-07-24 04:29:00,
2014-07-24 00:30:00,68.1,66.6,30.00,NNE,32,1.0,3.0,95,0.00,,,0.01,Wunderground v.1.15,2014-07-24 04:30:00,
2014-07-24 00:31:00,68.1,66.6,30.00,NNE,32,2.0,3.0,95,0.00,,,0.01,Wunderground v.1.15,2014-07-24 04:31:00,
2014-07-24 00:32:00,68.1,66.6,30.00,NNE,32,3.0,3.0,95,0.00,,,0.01,Wunderground v.1.15,2014-07-24 04:32:00,
2014-07-24 00:33:00,68.1,66.6,30.00,NNE,32,3.0,3.0,95,0.00,,,0.01,Wunderground v.1.15,2014-07-24 04:33:00,
2014-07-24 00:36:00,68.1,66.6,30.00,NNE,19,4.0,4.0,95,0.00,,,0.01,Wunderground v.1.15,2014-07-24 04:36:00,
2014-07-24 00:39:00,68.0,66.5,30.00,NE,48,1.0,6.0,95,0.00,,,0.01,Wunderground v.1.15,2014-07-24 04:39:00,
2014-07-24 00:40:00,68.1,66.6,30.00,NE,51,2.0,6.0,95,0.00,,,0.01,Wunderground v.1.15,2014-07-24 04:40:00,
2014-07-24 00:42:00,68.0,66.5,30.00,NE,52,2.0,6.0,95,0.00,,,0.01,Wunderground v.1.15,2014-07-24 04:42:00,
2014-07-24 00:47:00,68.0,66.5,30.00,North,5,3.0,4.0,95,0.00,,,0.01,Wunderground v.1.15,2014-07-24 04:47:00,
2014-07-24 00:48:00,68.0,66.5,30.00,NNE,32,4.0,4.0,95,0.00,,,0.01,Wunderground v.1.15,2014-07-24 04:48:00,
2014-07-24 00:49:00,68.0,66.5,30.00,NNE,16,4.0,4.0,95,0.00,,,0.01,Wunderground v.1.15,2014-07-24 04:49:00,
2014-07-24 00:51:00,67.9,66.4,30.00,NNE,30,5.0,5.0,95,0.00,,,0.01,Wunderground v.1.15,2014-07-24 04:51:00,
2014-07-24 00:54:00,67.9,66.4,30.00,NNE,21,1.0,6.0,95,0.00,,,0.01,Wunderground v.1.15,2014-07-24 04:54:00,
2014-07-24 00:57:00,67.8,66.3,30.00,NNE,17,4.0,6.0,95,0.00,,,0.01,Wunderground v.1.15,2014-07-24 04:57:00,
2014-07-24 00:58:00,67.8,66.3,30.00,NNE,25,2.0,6.0,95,0.00,,,0.01,Wunderground v.1.15,2014-07-24 04:58:00,
2014-07-24 01:00:00,67.7,66.2,29.99,North,360,4.0,6.0,95,0.00,,,0.01,Wunderground v.1.15,2014-07-24 05:00:00,
2014-07-24 01:04:00,67.6,66.1,29.99,NE,36,0.0,4.0,95,0.00,,,0.01,Wunderground v.1.15,2014-07-24 05:04:00,
2014-07-24 01:05:00,67.7,66.2,29.99,NE,36,1.0,4.0,95,0.00,,,0.01,Wunderground v.1.15,2014-07-24 05:05:00,
2014-07-24 01:06:00,67.7,66.2,29.99,NE,38,0.0,4.0,95,0.00,,,0.01,Wunderground v.1.15,2014-07-24 05:06:00,
2014-07-24 01:11:00,67.5,66.0,30.00,NNE,33,3.0,6.0,95,0.00,,,0.01,Wunderground v.1.15,2014-07-24 05:11:00,
2014-07-24 01:12:00,67.4,65.9,30.00,ENE,57,7.0,7.0,95,0.00,,,0.01,Wunderground v.1.15,2014-07-24 05:12:00,
2014-07-24 01:13:00,67.4,65.9,30.00,NE,46,6.0,6.0,95,0.00,,,0.01,Wunderground v.1.15,2014-07-24 05:13:00,
2014-07-24 01:14:00,67.4,65.9,30.00,NE,47,4.0,6.0,95,0.00,,,0.01,Wunderground v.1.15,2014-07-24 05:14:00,
2014-07-24 01:16:00,67.2,65.7,29.99,East,90,5.0,6.0,95,0.00,,,0.01,Wunderground v.1.15,2014-07-24 05:16:00,
2014-07-24 01:17:00,67.2,65.7,30.00,East,84,5.0,6.0,95,0.00,,,0.01,Wunderground v.1.15,2014-07-24 05:17:00,
2014-07-24 01:20:00,67.1,65.6,30.00,ENE,68,4.0,6.0,95,0.00,,,0.01,Wunderground v.1.15,2014-07-24 05:20:00,
2014-07-24 01:22:00,67.1,65.6,30.00,NNE,23,3.0,6.0,95,0.00,,,0.01,Wunderground v.1.15,2014-07-24 05:22:00,
2014-07-24 01:23:00,67.1,65.6,30.00,NNE,20,4.0,4.0,95,0.00,,,0.01,Wunderground v.1.15,2014-07-24 05:23:00,
2014-07-24 01:26:00,66.9,65.4,30.00,NNE,22,3.0,5.0,95,0.00,,,0.01,Wunderground v.1.15,2014-07-24 05:26:00,
2014-07-24 01:27:00,66.9,65.4,30.00,NNE,12,1.0,5.0,95,0.00,,,0.01,Wunderground v.1.15,2014-07-24 05:27:00,
2014-07-24 01:28:00,66.9,65.4,30.00,NE,44,5.0,5.0,95,0.00,,,0.01,Wunderground v.1.15,2014-07-24 05:28:00,
2014-07-24 01:32:00,66.9,65.1,30.00,NE,38,6.0,6.0,94,0.00,,,0.01,Wunderground v.1.15,2014-07-24 05:32:00,
2014-07-24 01:35:00,66.8,65.0,30.00,NE,39,3.0,5.0,94,0.00,,,0.01,Wunderground v.1.15,2014-07-24 05:35:00,
2014-07-24 01:36:00,66.9,65.1,30.00,NE,51,1.0,5.0,94,0.00,,,0.01,Wunderground v.1.15,2014-07-24 05:36:00,
2014-07-24 01:38:00,66.8,65.0,30.00,ENE,74,1.0,5.0,94,0.00,,,0.01,Wunderground v.1.15,2014-07-24 05:38:00,
2014-07-24 01:39:00,66.8,65.0,30.00,NE,53,4.0,5.0,94,0.00,,,0.01,Wunderground v.1.15,2014-07-24 05:39:00,
2014-07-24 01:40:00,66.8,65.0,30.00,NE,38,3.0,5.0,94,0.00,,,0.01,Wunderground v.1.15,2014-07-24 05:40:00,
2014-07-24 01:43:00,66.7,64.9,30.00,NE,54,2.0,2.0,94,0.00,,,0.01,Wunderground v.1.15,2014-07-24 05:43:00,
2014-07-24 01:48:00,66.6,64.8,29.99,NNE,28,2.0,4.0,94,0.00,,,0.01,Wunderground v.1.15,2014-07-24 05:48:00,
2014-07-24 01:49:00,66.6,64.8,29.99,NE,42,8.0,8.0,94,0.00,,,0.01,Wunderground v.1.15,2014-07-24 05:49:00,
2014-07-24 01:54:00,66.6,64.5,29.99,ENE,58,0.0,4.0,93,0.00,,,0.01,Wunderground v.1.15,2014-07-24 05:54:00,
2014-07-24 01:55:00,66.6,64.2,29.99,NE,35,3.0,4.0,92,0.00,,,0.01,Wunderground v.1.15,2014-07-24 05:55:00,
2014-07-24 01:57:00,66.6,64.2,29.99,NNE,30,5.0,5.0,92,0.00,,,0.01,Wunderground v.1.15,2014-07-24 05:57:00,
2014-07-24 01:59:00,66.5,64.1,29.99,NNE,22,4.0,5.0,92,0.00,,,0.01,Wunderground v.1.15,2014-07-24 05:59:00,
2014-07-24 02:00:00,66.5,64.1,29.99,NE,52,3.0,5.0,92,0.00,,,0.01,Wunderground v.1.15,2014-07-24 06:00:00,
2014-07-24 02:02:00,66.5,64.1,29.99,NE,35,3.0,6.0,92,0.00,,,0.01,Wunderground v.1.15,2014-07-24 06:02:00,
2014-07-24 02:03:00,66.5,64.1,29.99,NE,41,5.0,5.0,92,0.00,,,0.01,Wunderground v.1.15,2014-07-24 06:03:00,
2014-07-24 02:04:00,66.4,64.0,29.99,NNE,17,2.0,8.0,92,0.00,,,0.01,Wunderground v.1.15,2014-07-24 06:04:00,
2014-07-24 02:05:00,66.4,64.0,29.99,NE,47,5.0,8.0,92,0.00,,,0.01,Wunderground v.1.15,2014-07-24 06:05:00,
2014-07-24 02:07:00,66.3,63.9,29.99,NNE,27,3.0,8.0,92,0.00,,,0.01,Wunderground v.1.15,2014-07-24 06:07:00,
2014-07-24 02:08:00,66.3,63.9,29.99,NNE,24,2.0,8.0,92,0.00,,,0.01,Wunderground v.1.15,2014-07-24 06:08:00,
2014-07-24 02:11:00,66.3,63.6,29.99,ENE,59,1.0,8.0,91,0.00,,,0.01,Wunderground v.1.15,2014-07-24 06:11:00,
2014-07-24 02:12:00,66.2,63.8,29.99,ENE,67,3.0,8.0,92,0.00,,,0.01,Wunderground v.1.15,2014-07-24 06:12:00,
2014-07-24 02:13:00,66.2,63.8,29.99,ENE,67,1.0,3.0,92,0.00,,,0.01,Wunderground v.1.15,2014-07-24 06:13:00,
2014-07-24 02:14:00,66.2,63.8,29.98,NNE,26,3.0,9.0,92,0.00,,,0.01,Wunderground v.1.15,2014-07-24 06:14:00,
2014-07-24 02:16:00,66.1,63.7,29.98,NE,49,5.0,9.0,92,0.00,,,0.01,Wunderground v.1.15,2014-07-24 06:16:00,
2014-07-24 02:17:00,66.1,63.7,29.98,NE,50,5.0,9.0,92,0.00,,,0.01,Wunderground v.1.15,2014-07-24 06:17:00,
2014-07-24 02:19:00,66.1,63.4,29.98,NNE,13,5.0,9.0,91,0.00,,,0.01,Wunderground v.1.15,2014-07-24 06:19:00,
2014-07-24 02:21:00,66.0,63.3,29.98,NNE,27,3.0,9.0,91,0.00,,,0.01,Wunderground v.1.15,2014-07-24 06:21:00,
2014-07-24 02:22:00,66.0,63.3,29.98,NE,42,5.0,9.0,91,0.00,,,0.01,Wunderground v.1.15,2014-07-24 06:22:00,
2014-07-24 02:23:00,66.0,63.3,29.98,NE,42,2.0,4.0,91,0.00,,,0.01,Wunderground v.1.15,2014-07-24 06:23:00,
2014-07-24 02:24:00,66.0,63.3,29.98,NE,34,3.0,4.0,91,0.00,,,0.01,Wunderground v.1.15,2014-07-24 06:24:00,
2014-07-24 02:26:00,66.0,63.3,29.99,NE,36,5.0,6.0,91,0.00,,,0.01,Wunderground v.1.15,2014-07-24 06:26:00,
2014-07-24 02:27:00,66.0,63.3,29.99,NNE,15,2.0,6.0,91,0.00,,,0.01,Wunderground v.1.15,2014-07-24 06:27:00,
2014-07-24 02:28:00,66.0,63.3,29.99,NNE,15,0.0,6.0,91,0.00,,,0.01,Wunderground v.1.15,2014-07-24 06:28:00,
2014-07-24 02:29:00,66.0,63.3,29.98,NNE,17,4.0,6.0,91,0.00,,,0.01,Wunderground v.1.15,2014-07-24 06:29:00,
2014-07-24 02:30:00,66.0,63.3,29.98,NE,38,6.0,6.0,91,0.00,,,0.01,Wunderground v.1.15,2014-07-24 06:30:00,
2014-07-24 02:31:00,65.9,63.2,29.98,ENE,60,9.0,9.0,91,0.00,,,0.01,Wunderground v.1.15,2014-07-24 06:31:00,
2014-07-24 02:32:00,65.9,63.2,29.98,NE,40,4.0,10.0,91,0.00,,,0.01,Wunderground v.1.15,2014-07-24 06:32:00,
2014-07-24 02:33:00,66.0,63.3,29.98,North,355,2.0,3.0,91,0.00,,,0.01,Wunderground v.1.15,2014-07-24 06:33:00,
2014-07-24 02:34:00,66.0,63.3,29.98,NNE,13,5.0,6.0,91,0.00,,,0.01,Wunderground v.1.15,2014-07-24 06:34:00,
2014-07-24 02:36:00,65.9,63.2,29.98,NNE,22,3.0,8.0,91,0.00,,,0.01,Wunderground v.1.15,2014-07-24 06:36:00,
2014-07-24 02:38:00,65.9,63.2,29.98,NNE,21,4.0,8.0,91,0.00,,,0.01,Wunderground v.1.15,2014-07-24 06:38:00,
2014-07-24 02:39:00,65.9,63.2,29.98,NE,41,6.0,9.0,91,0.00,,,0.01,Wunderground v.1.15,2014-07-24 06:39:00,
2014-07-24 02:40:00,65.9,63.2,29.98,NNE,13,5.0,9.0,91,0.00,,,0.01,Wunderground v.1.15,2014-07-24 06:40:00,
2014-07-24 02:42:00,65.9,63.2,29.98,NNE,18,3.0,9.0,91,0.00,,,0.01,Wunderground v.1.15,2014-07-24 06:42:00,
2014-07-24 02:43:00,65.9,63.2,29.98,NNE,26,4.0,4.0,91,0.00,,,0.01,Wunderground v.1.15,2014-07-24 06:43:00,
2014-07-24 02:44:00,65.9,63.2,29.98,NNE,24,2.0,5.0,91,0.00,,,0.01,Wunderground v.1.15,2014-07-24 06:44:00,
2014-07-24 02:45:00,65.9,63.2,29.98,NE,55,0.0,5.0,91,0.00,,,0.01,Wunderground v.1.15,2014-07-24 06:45:00,
2014-07-24 02:47:00,65.9,63.2,29.98,NE,45,6.0,8.0,91,0.00,,,0.01,Wunderground v.1.15,2014-07-24 06:47:00,
2014-07-24 02:48:00,65.9,63.2,29.98,NNE,30,4.0,8.0,91,0.00,,,0.01,Wunderground v.1.15,2014-07-24 06:48:00,
2014-07-24 02:50:00,66.0,63.3,29.99,NE,36,7.0,8.0,91,0.00,,,0.01,Wunderground v.1.15,2014-07-24 06:50:00,
2014-07-24 02:51:00,66.0,63.3,29.99,NNE,21,4.0,8.0,91,0.00,,,0.01,Wunderground v.1.15,2014-07-24 06:51:00,
2014-07-24 02:52:00,66.0,63.3,29.99,NNE,22,0.0,3.0,91,0.00,,,0.01,Wunderground v.1.15,2014-07-24 06:52:00,
2014-07-24 02:53:00,66.0,63.3,29.99,ENE,64,1.0,3.0,91,0.00,,,0.01,Wunderground v.1.15,2014-07-24 06:53:00,
2014-07-24 02:54:00,66.0,63.3,29.99,ENE,64,2.0,3.0,91,0.00,,,0.01,Wunderground v.1.15,2014-07-24 06:54:00,
2014-07-24 02:55:00,65.9,63.2,29.99,ENE,64,1.0,3.0,91,0.00,,,0.01,Wunderground v.1.15,2014-07-24 06:55:00,
2014-07-24 02:57:00,65.9,63.2,29.99,NNW,344,0.0,6.0,91,0.00,,,0.01,Wunderground v.1.15,2014-07-24 06:57:00,
2014-07-24 02:58:00,65.9,63.2,29.99,NNE,22,3.0,6.0,91,0.00,,,0.01,Wunderground v.1.15,2014-07-24 06:58:00,
2014-07-24 02:59:00,65.9,63.2,29.99,NNE,21,3.0,6.0,91,0.00,,,0.01,Wunderground v.1.15,2014-07-24 06:59:00,
2014-07-24 03:01:00,65.9,63.2,29.99,North,11,1.0,8.0,91,0.00,,,0.01,Wunderground v.1.15,2014-07-24 07:01:00,
2014-07-24 03:02:00,65.9,63.2,29.99,North,11,0.0,8.0,91,0.00,,,0.01,Wunderground v.1.15,2014-07-24 07:02:00,
2014-07-24 03:04:00,65.8,63.1,29.99,East,92,0.0,6.0,91,0.00,,,0.01,Wunderground v.1.15,2014-07-24 07:04:00,
2014-07-24 03:06:00,65.8,62.5,29.99,ENE,68,2.0,7.0,89,0.00,,,0.01,Wunderground v.1.15,2014-07-24 07:06:00,
2014-07-24 03:07:00,65.8,62.5,29.99,ENE,67,2.0,7.0,89,0.00,,,0.01,Wunderground v.1.15,2014-07-24 07:07:00,
2014-07-24 03:09:00,65.8,62.5,29.99,NE,38,4.0,7.0,89,0.00,,,0.01,Wunderground v.1.15,2014-07-24 07:09:00,
2014-07-24 03:12:00,65.7,61.4,29.99,NE,54,3.0,11.0,86,0.00,,,0.01,Wunderground v.1.15,2014-07-24 07:12:00,
2014-07-24 03:13:00,65.7,60.7,29.99,NE,49,6.0,6.0,84,0.00,,,0.01,Wunderground v.1.15,2014-07-24 07:13:00,
2014-07-24 03:14:00,65.7,60.4,29.99,NE,40,4.0,8.0,83,0.00,,,0.01,Wunderground v.1.15,2014-07-24 07:14:00,
2014-07-24 03:15:00,65.7,60.1,29.99,ENE,68,3.0,8.0,82,0.00,,,0.01,Wunderground v.1.15,2014-07-24 07:15:00,
2014-07-24 03:17:00,65.7,59.7,29.99,NE,54,3.0,9.0,81,0.00,,,0.01,Wunderground v.1.15,2014-07-24 07:17:00,
2014-07-24 03:19:00,65.6,59.3,29.99,NNE,19,2.0,9.0,80,0.00,,,0.01,Wunderground v.1.15,2014-07-24 07:19:00,
2014-07-24 03:21:00,65.5,59.2,29.99,ENE,66,4.0,10.0,80,0.00,,,0.01,Wunderground v.1.15,2014-07-24 07:21:00,
2014-07-24 03:22:00,65.5,59.2,29.99,NE,49,4.0,10.0,80,0.00,,,0.01,Wunderground v.1.15,2014-07-24 07:22:00,
2014-07-24 03:23:00,65.5,58.8,29.99,NE,55,4.0,4.0,79,0.00,,,0.01,Wunderground v.1.15,2014-07-24 07:23:00,
2014-07-24 03:24:00,65.4,59.1,29.99,ENE,60,9.0,10.0,80,0.00,,,0.01,Wunderground v.1.15,2014-07-24 07:24:00,
2014-07-24 03:26:00,65.3,58.6,29.99,NNE,13,4.0,10.0,79,0.00,,,0.01,Wunderground v.1.15,2014-07-24 07:26:00,
2014-07-24 03:27:00,65.3,59.0,29.99,ENE,70,5.0,10.0,80,0.00,,,0.01,Wunderground v.1.15,2014-07-24 07:27:00,
2014-07-24 03:28:00,65.2,58.9,29.99,ENE,67,2.0,10.0,80,0.00,,,0.01,Wunderground v.1.15,2014-07-24 07:28:00,
2014-07-24 03:29:00,65.2,58.5,29.99,NE,48,2.0,10.0,79,0.00,,,0.01,Wunderground v.1.15,2014-07-24 07:29:00,
2014-07-24 03:30:00,65.1,58.4,29.99,NE,52,1.0,10.0,79,0.00,,,0.01,Wunderground v.1.15,2014-07-24 07:30:00,
2014-07-24 03:31:00,65.1,58.8,29.99,ENE,60,10.0,10.0,80,0.00,,,0.01,Wunderground v.1.15,2014-07-24 07:31:00,
2014-07-24 03:33:00,65.1,58.1,29.99,North,355,4.0,4.0,78,0.00,,,0.01,Wunderground v.1.15,2014-07-24 07:33:00,
2014-07-24 03:34:00,65.1,58.1,29.99,ENE,76,0.0,7.0,78,0.00,,,0.01,Wunderground v.1.15,2014-07-24 07:34:00,
2014-07-24 03:35:00,65.1,58.4,29.99,NE,38,3.0,7.0,79,0.00,,,0.01,Wunderground v.1.15,2014-07-24 07:35:00,
2014-07-24 03:36:00,65.1,58.4,29.99,ENE,71,3.0,7.0,79,0.00,,,0.01,Wunderground v.1.15,2014-07-24 07:36:00,
2014-07-24 03:38:00,65.0,58.3,29.99,ENE,63,4.0,7.0,79,0.00,,,0.01,Wunderground v.1.15,2014-07-24 07:38:00,
2014-07-24 03:39:00,64.9,58.2,29.99,NE,36,3.0,7.0,79,0.00,,,0.01,Wunderground v.1.15,2014-07-24 07:39:00,
2014-07-24 03:40:00,64.9,58.2,29.99,North,351,2.0,7.0,79,0.00,,,0.01,Wunderground v.1.15,2014-07-24 07:40:00,
2014-07-24 03:42:00,64.9,58.2,29.99,NNE,18,2.0,7.0,79,0.00,,,0.01,Wunderground v.1.15,2014-07-24 07:42:00,
2014-07-24 03:43:00,64.9,58.2,29.99,NNE,30,2.0,3.0,79,0.00,,,0.01,Wunderground v.1.15,2014-07-24 07:43:00,
2014-07-24 03:44:00,64.9,58.2,29.99,NNE,31,3.0,3.0,79,0.00,,,0.01,Wunderground v.1.15,2014-07-24 07:44:00,
2014-07-24 03:45:00,64.9,58.2,29.99,NE,44,5.0,6.0,79,0.00,,,0.01,Wunderground v.1.15,2014-07-24 07:45:00,
2014-07-24 03:46:00,64.9,58.2,29.99,NNE,17,3.0,6.0,79,0.00,,,0.01,Wunderground v.1.15,2014-07-24 07:46:00,
2014-07-24 03:47:00,64.9,58.2,29.99,NNE,19,1.0,6.0,79,0.00,,,0.01,Wunderground v.1.15,2014-07-24 07:47:00,
2014-07-24 03:49:00,64.8,58.5,29.99,NE,36,0.0,6.0,80,0.00,,,0.01,Wunderground v.1.15,2014-07-24 07:49:00,
2014-07-24 03:50:00,64.7,58.4,29.99,NNE,27,4.0,6.0,80,0.00,,,0.01,Wunderground v.1.15,2014-07-24 07:50:00,
2014-07-24 03:51:00,64.7,58.4,29.99,NNE,26,4.0,6.0,80,0.00,,,0.01,Wunderground v.1.15,2014-07-24 07:51:00,
2014-07-24 03:52:00,64.6,58.3,29.99,NE,40,6.0,8.0,80,0.00,,,0.01,Wunderground v.1.15,2014-07-24 07:52:00,
2014-07-24 03:54:00,64.7,58.4,29.99,NNE,20,2.0,9.0,80,0.00,,,0.01,Wunderground v.1.15,2014-07-24 07:54:00,
2014-07-24 03:55:00,64.7,58.4,29.99,North,10,5.0,9.0,80,0.00,,,0.01,Wunderground v.1.15,2014-07-24 07:55:00,
2014-07-24 03:56:00,64.7,58.4,29.99,NNE,13,1.0,9.0,80,0.00,,,0.01,Wunderground v.1.15,2014-07-24 07:56:00,
2014-07-24 03:57:00,64.7,58.4,29.99,NE,34,4.0,9.0,80,0.00,,,0.01,Wunderground v.1.15,2014-07-24 07:57:00,
2014-07-24 03:58:00,64.7,58.4,29.99,NNE,28,5.0,9.0,80,0.00,,,0.01,Wunderground v.1.15,2014-07-24 07:58:00,
2014-07-24 03:59:00,64.7,58.4,29.99,North,360,4.0,9.0,80,0.00,,,0.01,Wunderground v.1.15,2014-07-24 07:59:00,
2014-07-24 04:00:00,64.7,58.4,29.99,NNE,32,3.0,9.0,80,0.00,,,0.01,Wunderground v.1.15,2014-07-24 08:00:00,
2014-07-24 04:01:00,64.6,58.6,29.99,NNE,32,2.0,9.0,81,0.00,,,0.01,Wunderground v.1.15,2014-07-24 08:01:00,
2014-07-24 04:02:00,64.6,58.6,29.99,NNE,24,4.0,9.0,81,0.00,,,0.01,Wunderground v.1.15,2014-07-24 08:02:00,
2014-07-24 04:03:00,64.5,58.2,29.99,NNE,24,3.0,4.0,80,0.00,,,0.01,Wunderground v.1.15,2014-07-24 08:03:00,
2014-07-24 04:04:00,64.5,58.2,29.99,NNE,24,2.0,4.0,80,0.00,,,0.01,Wunderground v.1.15,2014-07-24 08:04:00,
2014-07-24 04:06:00,64.5,58.5,29.99,NNE,31,4.0,4.0,81,0.00,,,0.01,Wunderground v.1.15,2014-07-24 08:06:00,
2014-07-24 04:07:00,64.5,58.2,29.99,NE,34,2.0,6.0,80,0.00,,,0.01,Wunderground v.1.15,2014-07-24 08:07:00,
2014-07-24 04:08:00,64.4,58.1,29.99,NE,34,5.0,6.0,80,0.00,,,0.01,Wunderground v.1.15,2014-07-24 08:08:00,
2014-07-24 04:09:00,64.4,58.1,29.98,NNE,26,3.0,9.0,80,0.00,,,0.01,Wunderground v.1.15,2014-07-24 08:09:00,
2014-07-24 04:11:00,64.4,58.1,29.98,NNE,24,2.0,9.0,80,0.00,,,0.01,Wunderground v.1.15,2014-07-24 08:11:00,
2014-07-24 04:13:00,64.4,57.7,29.98,NE,46,3.0,3.0,79,0.00,,,0.01,Wunderground v.1.15,2014-07-24 08:13:00,
2014-07-24 04:14:00,64.3,57.6,29.98,NNE,17,5.0,8.0,79,0.00,,,0.01,Wunderground v.1.15,2014-07-24 08:14:00,
2014-07-24 04:15:00,64.3,57.6,29.98,NNE,23,6.0,10.0,79,0.00,,,0.01,Wunderground v.1.15,2014-07-24 08:15:00,
2014-07-24 04:17:00,64.3,57.6,29.98,North,9,2.0,10.0,79,0.00,,,0.01,Wunderground v.1.15,2014-07-24 08:17:00,
2014-07-24 04:18:00,64.3,58.0,29.98,NNE,15,3.0,10.0,80,0.00,,,0.01,Wunderground v.1.15,2014-07-24 08:18:00,
2014-07-24 04:20:00,64.1,57.5,29.98,NNE,30,3.0,11.0,79,0.00,,,0.01,Wunderground v.1.15,2014-07-24 08:20:00,
2014-07-24 04:22:00,64.1,57.5,29.98,NNE,20,0.0,11.0,79,0.00,,,0.01,Wunderground v.1.15,2014-07-24 08:22:00,
2014-07-24 04:24:00,64.0,57.7,29.98,NE,34,2.0,5.0,80,0.00,,,0.01,Wunderground v.1.15,2014-07-24 08:24:00,
2014-07-24 04:25:00,63.9,57.3,29.98,NE,43,5.0,7.0,79,0.00,,,0.01,Wunderground v.1.15,2014-07-24 08:25:00,
2014-07-24 04:26:00,63.8,57.2,29.98,NE,36,4.0,7.0,79,0.00,,,0.01,Wunderground v.1.15,2014-07-24 08:26:00,
2014-07-24 04:27:00,63.8,57.2,29.98,NE,36,4.0,7.0,79,0.00,,,0.01,Wunderground v.1.15,2014-07-24 08:27:00,
2014-07-24 04:29:00,63.8,57.2,29.98,NE,35,4.0,11.0,79,0.00,,,0.01,Wunderground v.1.15,2014-07-24 08:29:00,
2014-07-24 04:30:00,63.8,57.2,29.98,NE,46,8.0,11.0,79,0.00,,,0.01,Wunderground v.1.15,2014-07-24 08:30:00,
2014-07-24 04:32:00,63.9,57.3,29.98,NNE,25,7.0,11.0,79,0.00,,,0.01,Wunderground v.1.15,2014-07-24 08:32:00,
2014-07-24 04:33:00,63.9,56.9,29.98,NE,40,5.0,5.0,78,0.00,,,0.01,Wunderground v.1.15,2014-07-24 08:33:00,
2014-07-24 04:34:00,64.0,57.4,29.98,NNE,28,2.0,5.0,79,0.00,,,0.01,Wunderground v.1.15,2014-07-24 08:34:00,
2014-07-24 04:35:00,63.9,57.3,29.98,NNE,17,3.0,5.0,79,0.00,,,0.01,Wunderground v.1.15,2014-07-24 08:35:00,
2014-07-24 04:37:00,63.8,57.2,29.98,NNE,24,3.0,5.0,79,0.00,,,0.01,Wunderground v.1.15,2014-07-24 08:37:00,
2014-07-24 04:38:00,63.8,57.2,29.98,NNE,24,1.0,5.0,79,0.00,,,0.01,Wunderground v.1.15,2014-07-24 08:38:00,
2014-07-24 04:39:00,63.8,57.5,29.98,NNE,24,0.0,5.0,80,0.00,,,0.01,Wunderground v.1.15,2014-07-24 08:39:00,
2014-07-24 04:40:00,63.7,57.4,29.98,NNE,24,4.0,5.0,80,0.00,,,0.01,Wunderground v.1.15,2014-07-24 08:40:00,
2014-07-24 04:41:00,63.7,57.4,29.98,NNE,24,3.0,5.0,80,0.00,,,0.01,Wunderground v.1.15,2014-07-24 08:41:00,
2014-07-24 04:42:00,63.6,57.3,29.98,ENE,57,4.0,5.0,80,0.00,,,0.01,Wunderground v.1.15,2014-07-24 08:42:00,
2014-07-24 04:43:00,63.6,57.3,29.98,NNE,30,4.0,7.0,80,0.00,,,0.01,Wunderground v.1.15,2014-07-24 08:43:00,
2014-07-24 04:45:00,63.6,57.7,29.98,NNE,31,3.0,7.0,81,0.00,,,0.01,Wunderground v.1.15,2014-07-24 08:45:00,
2014-07-24 04:46:00,63.5,57.6,29.98,NNE,31,1.0,7.0,81,0.00,,,0.01,Wunderground v.1.15,2014-07-24 08:46:00,
2014-07-24 04:47:00,63.5,57.6,29.98,NNE,31,2.0,7.0,81,0.00,,,0.01,Wunderground v.1.15,2014-07-24 08:47:00,
2014-07-24 04:48:00,63.4,57.5,29.98,NNE,31,1.0,7.0,81,0.00,,,0.01,Wunderground v.1.15,2014-07-24 08:48:00,
2014-07-24 04:50:00,63.3,57.7,29.98,NNE,31,4.0,7.0,82,0.00,,,0.01,Wunderground v.1.15,2014-07-24 08:50:00,
2014-07-24 04:51:00,63.2,57.6,29.98,NNE,28,2.0,7.0,82,0.00,,,0.01,Wunderground v.1.15,2014-07-24 08:51:00,
2014-07-24 04:52:00,63.2,57.6,29.98,NNE,28,3.0,7.0,82,0.00,,,0.01,Wunderground v.1.15,2014-07-24 08:52:00,
2014-07-24 04:54:00,63.1,57.5,29.98,NNE,28,0.0,4.0,82,0.00,,,0.01,Wunderground v.1.15,2014-07-24 08:54:00,
2014-07-24 04:55:00,63.1,57.5,29.98,NNE,28,2.0,4.0,82,0.00,,,0.01,Wunderground v.1.15,2014-07-24 08:55:00,
2014-07-24 04:56:00,63.1,57.5,29.98,NNE,28,0.0,4.0,82,0.00,,,0.01,Wunderground v.1.15,2014-07-24 08:56:00,
2014-07-24 04:57:00,63.1,57.5,29.98,NNE,28,0.0,4.0,82,0.00,,,0.01,Wunderground v.1.15,2014-07-24 08:57:00,
2014-07-24 05:00:00,63.0,57.8,29.98,NNE,26,2.0,5.0,83,0.00,,,0.01,Wunderground v.1.15,2014-07-24 09:00:00,
2014-07-24 05:01:00,62.9,57.7,29.98,NNE,29,0.0,5.0,83,0.00,,,0.01,Wunderground v.1.15,2014-07-24 09:01:00,
2014-07-24 05:02:00,62.9,57.7,29.98,NNE,29,0.0,5.0,83,0.00,,,0.01,Wunderground v.1.15,2014-07-24 09:02:00,
2014-07-24 05:05:00,62.9,57.7,29.98,NE,40,0.0,7.0,83,0.00,,,0.01,Wunderground v.1.15,2014-07-24 09:05:00,
2014-07-24 05:07:00,62.9,57.7,29.98,NE,42,2.0,7.0,83,0.00,,,0.01,Wunderground v.1.15,2014-07-24 09:07:00,
2014-07-24 05:08:00,62.8,57.6,29.99,NE,40,3.0,7.0,83,0.00,,,0.01,Wunderground v.1.15,2014-07-24 09:08:00,
2014-07-24 05:11:00,62.7,57.5,29.99,NNE,32,2.0,7.0,83,0.00,,,0.01,Wunderground v.1.15,2014-07-24 09:11:00,
2014-07-24 05:12:00,62.7,57.5,29.99,NE,44,4.0,7.0,83,0.00,,,0.01,Wunderground v.1.15,2014-07-24 09:12:00,
2014-07-24 05:13:00,62.7,57.5,29.99,NNE,22,6.0,6.0,83,0.00,,,0.01,Wunderground v.1.15,2014-07-24 09:13:00,
2014-07-24 05:16:00,62.7,57.5,29.99,NNE,25,4.0,6.0,83,0.00,,,0.01,Wunderground v.1.15,2014-07-24 09:16:00,
2014-07-24 05:17:00,62.6,57.4,29.99,NNE,23,2.0,6.0,83,0.00,,,0.01,Wunderground v.1.15,2014-07-24 09:17:00,
2014-07-24 05:18:00,62.6,57.4,29.99,NE,46,8.0,8.0,83,0.00,,,0.01,Wunderground v.1.15,2014-07-24 09:18:00,
2014-07-24 05:19:00,62.5,57.3,29.99,NNE,18,3.0,8.0,83,0.00,,,0.01,Wunderground v.1.15,2014-07-24 09:19:00,
2014-07-24 05:21:00,62.6,57.4,29.99,North,10,5.0,8.0,83,0.00,,,0.01,Wunderground v.1.15,2014-07-24 09:21:00,
2014-07-24 05:22:00,62.6,57.4,29.99,North,10,5.0,8.0,83,0.00,,,0.01,Wunderground v.1.15,2014-07-24 09:22:00,
2014-07-24 05:23:00,62.6,57.4,29.99,NNE,18,3.0,5.0,83,0.00,,,0.01,Wunderground v.1.15,2014-07-24 09:23:00,
2014-07-24 05:24:00,62.6,58.0,29.99,NNE,23,4.0,5.0,85,0.00,,,0.01,Wunderground v.1.15,2014-07-24 09:24:00,
2014-07-24 05:27:00,62.5,57.3,29.99,NNE,17,4.0,7.0,83,0.00,,,0.01,Wunderground v.1.15,2014-07-24 09:27:00,
2014-07-24 05:28:00,62.5,57.3,29.99,NNE,20,2.0,7.0,83,0.00,,,0.01,Wunderground v.1.15,2014-07-24 09:28:00,
2014-07-24 05:29:00,62.5,57.3,29.99,NNE,31,6.0,7.0,83,0.00,,,0.01,Wunderground v.1.15,2014-07-24 09:29:00,
2014-07-24 05:30:00,62.5,57.3,29.99,NE,42,5.0,8.0,83,0.00,,,0.01,Wunderground v.1.15,2014-07-24 09:30:00,
2014-07-24 05:32:00,62.5,57.3,29.99,NNE,32,4.0,4.0,83,0.00,,,0.01,Wunderground v.1.15,2014-07-24 09:32:00,
2014-07-24 05:33:00,62.5,57.3,29.99,NNE,28,3.0,5.0,83,0.00,,,0.01,Wunderground v.1.15,2014-07-24 09:33:00,
2014-07-24 05:34:00,62.5,57.3,30.00,NNE,29,2.0,5.0,83,0.00,,,0.01,Wunderground v.1.15,2014-07-24 09:34:00,
2014-07-24 05:35:00,62.5,57.3,30.00,NE,36,3.0,6.0,83,0.00,,,0.01,Wunderground v.1.15,2014-07-24 09:35:00,
2014-07-24 05:38:00,62.4,57.2,30.00,North,355,1.0,6.0,83,0.00,,,0.01,Wunderground v.1.15,2014-07-24 09:38:00,
2014-07-24 05:39:00,62.4,57.2,30.00,North,355,0.0,6.0,83,0.00,,,0.01,Wunderground v.1.15,2014-07-24 09:39:00,
2014-07-24 05:40:00,62.4,57.5,30.00,North,9,6.0,6.0,84,0.00,,,0.01,Wunderground v.1.15,2014-07-24 09:40:00,
2014-07-24 05:43:00,62.3,57.4,30.00,NNE,20,8.0,8.0,84,0.00,,,0.01,Wunderground v.1.15,2014-07-24 09:43:00,
2014-07-24 05:44:00,62.3,57.4,30.00,NNW,333,1.0,10.0,84,0.00,,,0.01,Wunderground v.1.15,2014-07-24 09:44:00,
2014-07-24 05:45:00,62.3,57.4,30.00,NNE,21,5.0,10.0,84,0.00,,,0.01,Wunderground v.1.15,2014-07-24 09:45:00,
2014-07-24 05:47:00,62.3,57.4,30.00,NE,44,3.0,10.0,84,0.00,,,0.01,Wunderground v.1.15,2014-07-24 09:47:00,
2014-07-24 05:48:00,62.3,57.4,30.00,NNE,17,2.0,10.0,84,0.00,,,0.01,Wunderground v.1.15,2014-07-24 09:48:00,
2014-07-24 05:50:00,62.2,57.3,30.00,East,80,0.0,10.0,84,0.00,,,0.01,Wunderground v.1.15,2014-07-24 09:50:00,
2014-07-24 05:53:00,62.1,57.2,30.00,NNE,19,3.0,3.0,84,0.00,,,0.01,Wunderground v.1.15,2014-07-24 09:53:00,
2014-07-24 05:55:00,62.1,57.2,30.00,NE,35,4.0,7.0,84,0.00,,,0.01,Wunderground v.1.15,2014-07-24 09:55:00,
2014-07-24 05:58:00,62.0,57.4,30.00,NNE,33,0.0,7.0,85,0.00,,,0.01,Wunderground v.1.15,2014-07-24 09:58:00,
2014-07-24 05:59:00,62.0,57.4,30.00,NNE,33,0.0,7.0,85,0.00,,,0.01,Wunderground v.1.15,2014-07-24 09:59:00,
2014-07-24 06:00:00,62.0,57.4,30.00,NNW,344,0.0,7.0,85,0.00,,,0.01,Wunderground v.1.15,2014-07-24 10:00:00,
2014-07-24 06:01:00,61.9,57.3,30.00,NNW,344,1.0,7.0,85,0.00,,,0.01,Wunderground v.1.15,2014-07-24 10:01:00,
2014-07-24 06:03:00,61.8,57.2,30.01,NNW,344,2.0,2.0,85,0.00,,,0.01,Wunderground v.1.15,2014-07-24 10:03:00,
2014-07-24 06:05:00,61.7,57.5,30.01,NNE,29,5.0,5.0,86,0.00,,,0.01,Wunderground v.1.15,2014-07-24 10:05:00,
2014-07-24 06:06:00,61.7,57.5,30.01,NNE,26,3.0,5.0,86,0.00,,,0.01,Wunderground v.1.15,2014-07-24 10:06:00,
2014-07-24 06:07:00,61.6,57.4,30.01,NW,314,0.0,5.0,86,0.00,,,0.01,Wunderground v.1.15,2014-07-24 10:07:00,
2014-07-24 06:09:00,61.6,57.4,30.01,NNE,22,0.0,5.0,86,0.00,,,0.01,Wunderground v.1.15,2014-07-24 10:09:00,
2014-07-24 06:10:00,61.5,57.3,30.01,NNE,22,3.0,5.0,86,0.00,,,0.01,Wunderground v.1.15,2014-07-24 10:10:00,
2014-07-24 06:11:00,61.5,57.3,30.01,NNE,29,6.0,6.0,86,0.00,,,0.01,Wunderground v.1.15,2014-07-24 10:11:00,
2014-07-24 06:12:00,61.4,57.5,30.01,North,5,7.0,7.0,87,0.00,,,0.01,Wunderground v.1.15,2014-07-24 10:12:00,
2014-07-24 06:14:00,61.3,57.4,30.01,NE,47,5.0,8.0,87,0.00,,,0.01,Wunderground v.1.15,2014-07-24 10:14:00,
2014-07-24 06:15:00,61.3,57.4,30.01,NE,46,1.0,8.0,87,0.00,,,0.01,Wunderground v.1.15,2014-07-24 10:15:00,
2014-07-24 06:16:00,61.4,57.5,30.01,NE,46,0.0,8.0,87,0.00,,,0.01,Wunderground v.1.15,2014-07-24 10:16:00,
2014-07-24 06:18:00,61.3,57.4,30.01,NE,45,2.0,8.0,87,0.00,,,0.01,Wunderground v.1.15,2014-07-24 10:18:00,
2014-07-24 06:19:00,61.3,57.4,30.01,NE,45,2.0,8.0,87,0.00,,,0.01,Wunderground v.1.15,2014-07-24 10:19:00,
2014-07-24 06:21:00,61.2,57.3,30.01,NNE,29,3.0,8.0,87,0.00,,,0.01,Wunderground v.1.15,2014-07-24 10:21:00,
2014-07-24 06:23:00,61.2,57.3,30.01,NNE,29,0.0,2.0,87,0.00,,,0.01,Wunderground v.1.15,2014-07-24 10:23:00,
2014-07-24 06:24:00,61.2,57.3,30.01,NNE,29,2.0,2.0,87,0.00,,,0.01,Wunderground v.1.15,2014-07-24 10:24:00,
2014-07-24 06:26:00,61.1,57.2,30.01,NE,51,0.0,4.0,87,0.00,,,0.01,Wunderground v.1.15,2014-07-24 10:26:00,
2014-07-24 06:27:00,61.1,57.5,30.01,NE,51,0.0,4.0,88,0.00,,,0.01,Wunderground v.1.15,2014-07-24 10:27:00,
2014-07-24 06:29:00,61.0,57.4,30.01,NNE,27,2.0,5.0,88,0.00,,,0.01,Wunderground v.1.15,2014-07-24 10:29:00,
2014-07-24 06:30:00,61.0,57.4,30.01,NNE,27,0.0,5.0,88,0.00,,,0.01,Wunderground v.1.15,2014-07-24 10:30:00,
2014-07-24 06:31:00,60.9,57.3,30.02,NNE,27,0.0,5.0,88,0.00,,,0.01,Wunderground v.1.15,2014-07-24 10:31:00,
2014-07-24 06:32:00,60.9,57.3,30.02,NE,34,4.0,6.0,88,0.00,,,0.01,Wunderground v.1.15,2014-07-24 10:32:00,
2014-07-24 06:35:00,60.9,57.3,30.02,NNE,19,0.0,5.0,88,0.00,,,0.01,Wunderground v.1.15,2014-07-24 10:35:00,
2014-07-24 06:37:00,60.9,57.3,30.02,NNE,33,3.0,5.0,88,0.00,,,0.01,Wunderground v.1.15,2014-07-24 10:37:00,
2014-07-24 06:40:00,60.9,57.6,30.02,NE,34,0.0,5.0,89,0.00,,,0.01,Wunderground v.1.15,2014-07-24 10:40:00,
2014-07-24 06:41:00,60.8,57.2,30.02,NNE,13,2.0,5.0,88,0.00,,,0.01,Wunderground v.1.15,2014-07-24 10:41:00,
2014-07-24 06:42:00,60.8,57.2,30.02,NNE,13,0.0,5.0,88,0.00,,,0.01,Wunderground v.1.15,2014-07-24 10:42:00,
2014-07-24 06:45:00,60.7,57.4,30.02,NNE,29,2.0,8.0,89,0.00,,,0.01,Wunderground v.1.15,2014-07-24 10:45:00,
2014-07-24 06:47:00,60.8,57.5,30.02,NNE,30,2.0,9.0,89,0.00,,,0.01,Wunderground v.1.15,2014-07-24 10:47:00,
2014-07-24 06:48:00,60.8,57.5,30.02,NNE,30,3.0,9.0,89,0.00,,,0.01,Wunderground v.1.15,2014-07-24 10:48:00,
2014-07-24 06:51:00,60.8,57.5,30.02,NNE,22,0.0,9.0,89,0.00,,,0.01,Wunderground v.1.15,2014-07-24 10:51:00,
2014-07-24 06:52:00,60.8,57.5,30.02,NNE,22,4.0,9.0,89,0.00,,,0.01,Wunderground v.1.15,2014-07-24 10:52:00,
2014-07-24 06:53:00,60.8,57.5,30.02,ENE,59,5.0,5.0,89,0.00,,,0.01,Wunderground v.1.15,2014-07-24 10:53:00,
2014-07-24 06:56:00,60.7,57.4,30.02,North,351,1.0,9.0,89,0.00,,,0.01,Wunderground v.1.15,2014-07-24 10:56:00,
2014-07-24 06:57:00,60.7,57.4,30.02,NNE,26,1.0,9.0,89,0.00,,,0.01,Wunderground v.1.15,2014-07-24 10:57:00,
2014-07-24 06:58:00,60.7,57.4,30.02,NNE,26,1.0,9.0,89,0.00,,,0.01,Wunderground v.1.15,2014-07-24 10:58:00,
2014-07-24 07:01:00,60.7,57.4,30.02,North,355,5.0,9.0,89,0.00,,,0.01,Wunderground v.1.15,2014-07-24 11:01:00,
2014-07-24 07:02:00,60.7,57.4,30.02,North,5,4.0,9.0,89,0.00,,,0.01,Wunderground v.1.15,2014-07-24 11:02:00,
2014-07-24 07:03:00,60.7,57.4,30.02,North,5,1.0,3.0,89,0.00,,,0.01,Wunderground v.1.15,2014-07-24 11:03:00,
2014-07-24 07:05:00,60.7,57.4,30.01,NNW,342,2.0,5.0,89,0.00,,,0.01,Wunderground v.1.15,2014-07-24 11:05:00,